TimeChST,TemperatureF,Dew PointF,Humidity,Sea Level PressureIn,VisibilityMPH,Wind Direction,Wind SpeedMPH,Gust SpeedMPH,PrecipitationIn,Events,Conditions,WindDirDegrees,DateUTC
12:54 AM,82.9,75.0,77,29.99,10.0,NE,15.0,-,N/A,,Mostly Cloudy,50,2012-11-15 14:54:00
1:54 AM,82.0,75.9,82,29.98,10.0,NE,11.5,-,N/A,,Scattered Clouds,50,2012-11-15 15:54:00
2:54 AM,78.1,73.9,87,29.97,10.0,NE,10.4,-,0.12,,Overcast,50,2012-11-15 16:54:00
3:54 AM,78.8,73.0,82,29.96,10.0,NNE,10.4,-,N/A,,Scattered Clouds,30,2012-11-15 17:54:00
4:54 AM,78.1,75.0,90,29.97,10.0,NE,12.7,-,N/A,,Scattered Clouds,50,2012-11-15 18:54:00
5:54 AM,81.0,75.0,82,29.99,10.0,East,15.0,-,0.00,Rain,Light Rain,80,2012-11-15 19:54:00
6:54 AM,82.0,75.0,79,30.01,10.0,NE,13.8,-,0.00,,Mostly Cloudy,50,2012-11-15 20:54:00
7:54 AM,82.9,75.9,79,30.03,10.0,NE,16.1,-,0.00,,Mostly Cloudy,50,2012-11-15 21:54:00
8:42 AM,82.4,77.0,84,29.98,7.0,ENE,10.4,-,0.02,Rain,Heavy Rain,60,2012-11-15 22:42:00
8:49 AM,82.4,77.0,84,29.98,7.0,ENE,17.3,24.2,0.13,Rain,Light Rain,70,2012-11-15 22:49:00
8:54 AM,81.0,73.9,79,30.05,7.0,ENE,18.4,26.5,0.13,,Overcast,60,2012-11-15 22:54:00
9:54 AM,84.0,75.0,74,30.05,6.0,NE,12.7,20.7,0.01,Rain,Light Rain,50,2012-11-15 23:54:00
10:54 AM,88.0,77.0,70,30.03,10.0,ENE,15.0,20.7,N/A,,Partly Cloudy,60,2012-11-16 00:54:00
11:24 AM,87.8,75.2,66,29.96,10.0,NE,15.0,-,N/A,,Mostly Cloudy,50,2012-11-16 01:24:00
11:54 AM,89.1,77.0,67,30.01,10.0,ENE,18.4,-,N/A,,Scattered Clouds,60,2012-11-16 01:54:00
12:54 PM,89.1,75.0,63,29.99,10.0,NE,17.3,-,N/A,,Scattered Clouds,50,2012-11-16 02:54:00
1:07 PM,87.8,75.2,66,29.92,10.0,NE,18.4,-,N/A,,Mostly Cloudy,40,2012-11-16 03:07:00
1:39 PM,89.6,75.2,62,29.91,10.0,ENE,16.1,-,N/A,,Scattered Clouds,60,2012-11-16 03:39:00
1:54 PM,88.0,75.0,65,29.96,10.0,ENE,18.4,-,N/A,,Scattered Clouds,60,2012-11-16 03:54:00
2:54 PM,87.1,75.9,69,29.95,10.0,ENE,18.4,-,N/A,,Partly Cloudy,60,2012-11-16 04:54:00
3:54 PM,84.9,75.0,72,29.95,10.0,ENE,15.0,-,N/A,,Mostly Cloudy,60,2012-11-16 05:54:00
4:06 PM,84.2,75.2,74,29.89,10.0,ENE,12.7,-,N/A,,Mostly Cloudy,60,2012-11-16 06:06:00
4:37 PM,84.2,75.2,74,29.89,10.0,NE,16.1,-,N/A,,Mostly Cloudy,50,2012-11-16 06:37:00
4:54 PM,84.0,73.9,72,29.96,10.0,NE,16.1,-,N/A,,Scattered Clouds,50,2012-11-16 06:54:00
5:54 PM,82.9,75.0,77,29.96,10.0,NE,13.8,-,N/A,,Mostly Cloudy,50,2012-11-16 07:54:00
6:54 PM,82.9,75.0,77,29.98,10.0,NE,16.1,21.9,N/A,,Mostly Cloudy,50,2012-11-16 08:54:00
7:11 PM,82.4,75.2,79,29.92,10.0,NE,15.0,-,N/A,,Mostly Cloudy,50,2012-11-16 09:11:00
7:21 PM,82.4,75.2,79,29.92,10.0,NE,16.1,-,N/A,,Scattered Clouds,50,2012-11-16 09:21:00
7:54 PM,82.9,75.0,77,29.99,10.0,NE,15.0,21.9,N/A,,Mostly Cloudy,50,2012-11-16 09:54:00
8:54 PM,82.9,75.0,77,30.01,10.0,NE,15.0,-,N/A,,Scattered Clouds,50,2012-11-16 10:54:00
9:54 PM,82.0,75.0,79,30.01,10.0,NE,15.0,-,N/A,,Partly Cloudy,50,2012-11-16 11:54:00
10:54 PM,82.0,75.0,79,30.00,10.0,NE,15.0,-,N/A,,Scattered Clouds,50,2012-11-16 12:54:00
11:54 PM,82.0,75.9,82,29.99,10.0,NE,15.0,-,N/A,,Mostly Cloudy,40,2012-11-16 13:54:00